sat.trackr.live / text

‹ back to catalog

GSAT-9

NORAD 42695 · 2017-024A

PAYLOAD ACTIVE UNKNOWN

§ Identity

Operator
Country
IND
Launch date
2017-05-05
Launch site
SRILR
Launch vehicle
Mass (kg)
RCS (m²)

Purposes: comms

External: N2YO · Heavens-Above · Gunter

§ Orbital elements

Epoch: 2026-05-25T00:46:59.136960Z

Period
1,436.13 min
Inclination
0.0482°
Eccentricity
0.0002054
Mean motion
1.00269319 rev/d
Perigee alt
35,778.6 km
Apogee alt
35,795.9 km
Semi-major
42,165.4 km
B*
0.0000e+0
RAAN
263.1348°
Arg perigee
164.2222°
Mean anomaly
284.3145°
Rev number
3,306

§ Raw data

GSAT-91 42695U 17024A   26145.03262890 -.00000288  00000+0  00000+0 0  99952 42695   0.0482 263.1348 0002054 164.2222 284.3145  1.00269319 33069

JSON: /api/v1/satellites/42695 · /tle

For live sub-satellite position, see the globe view (requires WebGL).

§ Visibility from observer

Set your observer location to see the next 7 days of passes ≥ 10°. The values pass through the URL so the page stays shareable.

No JS? Fill the form by hand. The geolocation button needs JavaScript.